Regional Weather Roundup
Issued by NWS

Home | Current Version | Previous Version | Graphics & Text | Print | Product List | Glossary On
Versions: 1 2 3 4 5 6 7 8 9 10 11 12 13 14 15 16 17 18 19 20 21 22 23 24 25 26 27 28 29 30 31 32 33 34 35 36 37 38 39 40 41 42 43 44 45 46 47 48 49 50
000
ASUS43 KFSD 311002
RWRSD

WEATHER ROUNDUP FOR SOUTH DAKOTA
NATIONAL WEATHER SERVICE SIOUX FALLS SD
500 AM CDT FRI OCT 31 2014

NOTE: "FAIR" INDICATES FEW OR NO CLOUDS BELOW 12,000 FEET WITH NO
SIGNIFICANT WEATHER AND/OR OBSTRUCTIONS TO VISIBILITY.


SDZ001>005-009-010-012>017-311100-
NORTHWEST AND NORTH CENTRAL SOUTH DAKOTA

CITY           SKY/WX    TMP DP  RH WIND       PRES   REMARKS
BUFFALO          N/A     31  29  92 SE20      30.33F WCI  19
FAITH            N/A     28  24  85 SE16      30.48F WCI  16
MOBRIDGE       MOCLDY    22  19  89 E8        30.54F WCI  12
$$

SDZ012>016-024>037-041>051-057-063-072>074-311100-
SOUTHWEST AND SOUTH CENTRAL SOUTH DAKOTA

CITY           SKY/WX    TMP DP  RH WIND       PRES   REMARKS
RAPID CTY ARPT CLOUDY    31  30  96 S13       30.44F FOG     WCI  21
PIERRE         PTCLDY    16  14  92 NE3       30.56F
CUSTER         FOG       27  25  92 CALM      30.36F VSB 3/4
ELLSWORTH AFB  DRZL/FOG  31  31  97 S16       30.42F VSB 1/2 WCI  20
PHILIP         CLOUDY    31  25  78 SE10      30.53F WCI  22
PINE RIDGE     CLOUDY    29  28  96 SE8       30.46F WCI  21
SPEARFISH      FOG       28  28 100 CALM      30.35F VSB<1/4
WINNER         FAIR      24  20  84 W3        30.56S
$$

SDZ004>011-016>023-039-040-311100-
NORTHEAST SOUTH DAKOTA

CITY           SKY/WX    TMP DP  RH WIND       PRES   REMARKS
ABERDEEN       MOCLDY    15  11  83 N5        30.60S WCI   8
WATERTOWN      CLEAR     16  13  88 N6        30.53R WCI   7
SISSETON         N/A     18  16  92 NW7       30.57S WCI   9
$$

SDZ017-020-022-023-036>040-048>070-311100-
SOUTHEAST SOUTH DAKOTA

CITY           SKY/WX    TMP DP  RH WIND       PRES   REMARKS
SIOUX FALLS    PTCLDY    21  17  84 NW6       30.53R WCI  13
HURON          PTCLDY    13  11  92 NW5       30.59R WCI   5
CHAMBERLAIN    PTCLDY    24  19  80 NE3       30.58S
MITCHELL       CLEAR     18  15  88 NW7       30.59R WCI   9
YANKTON        CLEAR     25  19  80 NW10      30.57R WCI  15
$$

ABBREVIATIONS USED IN REMARKS
   TC - TEMPERATURE IN CELSIUS
  WCI - WIND CHILL INDEX
   HX - HEAT INDEX
  VSB - VISIBILITY




USA.gov is the U.S. government's official web portal to all federal, state and local government web resources and services.